RISAT-1

Last updated on Wed Apr 24 2024 00:02:30 GMT+0000 (Coordinated Universal Time)

1 38248U 12017A 24114.56248074 .00017040 00000+0 73615-3 0 9990 2 38248 97.5266 131.8188 0004960 87.7685 272.4119 15.22548155661267

Satellite not in orbit

RISAT-1